Home > Weather > Camagüey > Past weeks

Flag for Cuba Past Weather in Camagüey, Cuba — Yesterday and Last 2 Weeks

Now
73 °F

Passing clouds.


Feels Like: 72 °F
Forecast: 74 / 85 °F
Wind: 8 mph from East

Location: Camaguey Aeropuerto

Current Time: Aug 28, 2016 at 1:15:22 AM

Latest Report: Aug 27, 2016 at 11:50 PM


Visibility: 6 mi

Pressure: 29.95 "Hg

Humidity: 89%

Dew Point: 70 °F

Location of CamagüeyLocation

Past Weather in Camagüey — Graph

°F

Camagüey Temperature Yesterday

Maximum temperature yesterday: 81 °F (at 12:50 AM)
Minimum temperature yesterday: 73 °F (at 4:52 PM)
Average temperature yesterday: 77 °F

High & Low Weather Summary for the Past Weeks

 TemperatureHumidityPressure
High97 °F (Aug 19, 3:50 PM)94% (Aug 13, 5:50 AM)30.09 "Hg (Aug 13, 5:50 AM)
Low72 °F (Aug 12, 11:50 PM)30% (Aug 21, 4:50 PM)29.86 "Hg (Aug 25, 2:50 PM)
Average82 °F72%30.00 "Hg
* Reported Aug 12 11:50 PM — Aug 27 11:50 PM, Camagüey, Weather by CustomWeather, © 2016

Note: Actual official high and low records may vary slightly from our data, if they occured in-between our weather recording intervals... More about our weather records

Advertising

Camagüey Weather History for the Previous 24 Hours

Scroll right to see more
 ConditionsComfort  
Time TempWeatherWind HumidityBarometerVisibility
11:50 PM
Sat, Aug 27
73 °FPassing clouds.8 mph89%29.95 "Hg6 mi
10:50 PM73 °FPassing clouds.7 mph94%29.95 "Hg6 mi
9:50 PM73 °FPartly cloudy.3 mph94%29.95 "Hg6 mi
8:51 PM73 °FPartly cloudy.1 mph94%29.92 "Hg6 mi
7:51 PM73 °FBroken clouds.5 mph94%29.92 "Hg6 mi
6:52 PM73 °FBroken clouds.7 mph94%29.89 "Hg6 mi
5:50 PM73 °FThunderstorms. More clouds than sun.6 mph94%N/A3 mi
4:52 PM73 °FRain. More clouds than sun.9 mph89%N/A3 mi
3:50 PM75 °FLight rain. Partly sunny.13 mph83%29.89 "Hg4 mi
2:51 PM79 °FThunderstorms. Partly sunny.2 mph89%29.92 "Hg4 mi
1:50 PM77 °FLight rain. Partly sunny.2 mph89%29.92 "Hg4 mi
12:50 PM79 °FPartly sunny.3 mph79%29.92 "Hg6 mi
11:50 AM79 °FBroken clouds.6 mph79%29.92 "Hg6 mi
10:50 AM79 °FBroken clouds.9 mph79%29.92 "Hg6 mi
9:50 AM81 °FBroken clouds.10 mph74%29.92 "Hg6 mi
8:50 AM79 °FPassing clouds.9 mph84%29.89 "Hg6 mi
7:50 AM77 °FPassing clouds.5 mph89%29.89 "Hg6 mi
6:50 AM77 °FPassing clouds.3 mph89%29.89 "Hg6 mi
5:50 AM77 °FClear.6 mph89%29.86 "Hg6 mi
4:50 AM77 °FClear.5 mph89%29.86 "Hg6 mi
3:50 AM77 °FPassing clouds.6 mph89%29.86 "Hg6 mi
2:51 AM79 °FPassing clouds.6 mph84%29.89 "Hg6 mi
1:50 AM79 °FPassing clouds.6 mph84%29.89 "Hg6 mi
Weather by CustomWeather, © 2016

See weather overviewHow to use our weather pages